Home   Weather   Frankenthal (Pfalz)   Past weeks

Flag for Germany Past Weather in Frankenthal (Pfalz), Rhineland-Palatinate, Germany — Yesterday and Last 2 Weeks

Now
52 °F

Partly sunny.


Feels Like: 49 °F
Forecast: 37 / 57 °F
Wind: 7 mph from East

Location: Mannheim City

Current Time: Apr 27, 2017 at 3:04:08 pm

Latest Report: Apr 27, 2017 at 2:20 pm


Visibility: N/A

Pressure: 29.98 "Hg

Humidity: 35%

Dew Point: 25 °F

Location of Frankenthal (Pfalz)Location

Past Weather in Frankenthal (Pfalz) — Graph

°F

Frankenthal (Pfalz) Temperature Yesterday

Maximum temperature yesterday: 52 °F (at 1:50 pm)
Minimum temperature yesterday: 43 °F (at 5:20 am)
Average temperature yesterday: 48 °F

High & Low Weather Summary for the Past Weeks

 TemperatureHumidityPressure
High63 °F (Apr 24, 6:50 pm)100% (Apr 24, 5:20 am)30.60 "Hg (Apr 24, 5:20 am)
Low28 °F (Apr 20, 5:50 am)28% (Apr 21, 12:50 pm)29.71 "Hg (Apr 25, 5:50 am)
Average49 °F51%30.17 "Hg
* Reported Apr 19 9:20 am — Apr 27 1:50 pm, Frankenthal (Pfalz), Weather by CustomWeather, © 2017

Note: Actual official high and low records may vary slightly from our data, if they occured in-between our weather recording intervals... More about our weather records

Advertising

Frankenthal (Pfalz) Weather History for the Previous 24 Hours

Scroll right to see more
 ConditionsComfort  
Time TempWeatherWind HumidityBarometerVisibility
1:50 pm
Thu, Apr 27
52 °FScattered clouds.5 mph35%29.98 "HgN/A
12:50 pm52 °FBroken clouds.3 mph44%29.98 "HgN/A
12:20 pm48 °FScattered clouds.3 mph50%29.98 "HgN/A
11:50 am48 °FBroken clouds.6 mph50%30.01 "HgN/A
11:20 am48 °FBroken clouds.5 mph54%30.01 "HgN/A
10:50 am50 °FScattered clouds.2 mph54%29.98 "HgN/A
10:20 am48 °FPassing clouds.3 mph54%29.98 "HgN/A
9:50 am46 °FPassing clouds.5 mph57%29.98 "HgN/A
9:20 am45 °FPassing clouds.5 mph66%29.98 "HgN/A
8:50 am43 °FSunny.6 mph66%29.98 "Hg10 mi
8:20 am45 °FPassing clouds.6 mph61%29.98 "HgN/A
7:50 am43 °FSunny.5 mph66%29.98 "Hg10 mi
7:20 am43 °FPartly sunny.6 mph66%29.98 "HgN/A
6:50 am45 °FBroken clouds.1 mph66%29.95 "HgN/A
5:50 am45 °FPartly cloudy.6 mph66%29.95 "HgN/A
8:50 pm
Wed, Apr 26
48 °FPassing clouds.3 mph58%29.89 "HgN/A
8:20 pm48 °FSunny.3 mph54%29.89 "Hg10 mi
7:50 pm48 °FPassing clouds.5 mph54%29.89 "HgN/A
7:20 pm50 °FSunny.6 mph50%29.89 "Hg10 mi
6:50 pm50 °FPassing clouds.5 mph47%29.89 "HgN/A
6:20 pm50 °FPassing clouds.6 mph47%29.89 "HgN/A
5:50 pm50 °FPassing clouds.6 mph47%29.89 "HgN/A
5:20 pm50 °FScattered showers. Broken clouds.8 mph43%29.89 "HgN/A
4:50 pm50 °FScattered showers. Passing clouds.6 mph43%29.89 "HgN/A
4:20 pm50 °FScattered showers. Partly sunny.7 mph43%29.89 "HgN/A
3:50 pm50 °FScattered showers. Scattered clouds.5 mph43%29.86 "HgN/A
3:20 pm50 °FScattered showers. Overcast.5 mph40%29.86 "HgN/A
Weather by CustomWeather, © 2017

See weather overviewHow to use our weather pages